TimeEDT,TemperatureF,Dew PointF,Humidity,Sea Level PressureIn,VisibilityMPH,Wind Direction,Wind SpeedMPH,Gust SpeedMPH,PrecipitationIn,Events,Conditions,WindDirDegrees,DateUTC
12:55 AM,33.3,27.5,79,30.33,10.0,Calm,Calm,-,N/A,,Clear,0,2013-03-29 04:55:00
1:55 AM,32.0,27.7,84,30.33,10.0,Calm,Calm,-,N/A,,Clear,0,2013-03-29 05:55:00
2:55 AM,29.7,28.0,94,30.33,10.0,SSW,3.5,-,N/A,,Scattered Clouds,210,2013-03-29 06:55:00
3:55 AM,30.4,28.0,91,30.31,10.0,Calm,Calm,-,N/A,,Mostly Cloudy,0,2013-03-29 07:55:00
4:55 AM,30.9,28.4,90,30.30,10.0,Calm,Calm,-,N/A,,Mostly Cloudy,0,2013-03-29 08:55:00
5:55 AM,30.9,27.7,88,30.30,10.0,Calm,Calm,-,N/A,,Mostly Cloudy,0,2013-03-29 09:55:00
6:55 AM,30.2,28.6,94,30.30,10.0,South,3.5,-,N/A,,Overcast,170,2013-03-29 10:55:00
7:55 AM,29.5,28.8,97,30.31,10.0,Calm,Calm,-,N/A,,Mostly Cloudy,0,2013-03-29 11:55:00
8:55 AM,32.9,30.6,91,30.32,10.0,South,3.5,-,N/A,,Scattered Clouds,170,2013-03-29 12:55:00
9:55 AM,37.9,30.7,75,30.34,10.0,Calm,Calm,-,N/A,,Clear,0,2013-03-29 13:55:00
10:29 AM,41.0,32.0,70,30.30,10.0,Calm,Calm,-,N/A,,Clear,0,2013-03-29 14:29:00
10:55 AM,41.5,31.8,68,30.34,10.0,Calm,Calm,-,N/A,,Mostly Cloudy,0,2013-03-29 14:55:00
11:55 AM,43.2,31.6,64,30.34,10.0,Calm,Calm,-,N/A,,Overcast,0,2013-03-29 15:55:00
12:55 PM,45.7,29.7,54,30.32,10.0,Calm,Calm,-,N/A,,Overcast,0,2013-03-29 16:55:00
1:55 PM,47.8,31.6,53,30.30,10.0,Calm,Calm,-,N/A,,Partly Cloudy,0,2013-03-29 17:55:00
2:55 PM,49.8,31.3,49,30.29,10.0,Variable,5.8,-,N/A,,Clear,0,2013-03-29 18:55:00
3:55 PM,51.1,30.9,46,30.26,10.0,Calm,Calm,-,N/A,,Clear,0,2013-03-29 19:55:00
4:55 PM,51.1,28.0,41,30.25,10.0,NW,8.1,-,N/A,,Clear,320,2013-03-29 20:55:00
5:55 PM,51.1,28.6,42,30.24,10.0,West,4.6,-,N/A,,Scattered Clouds,260,2013-03-29 21:55:00
6:55 PM,50.9,27.9,41,30.23,10.0,NW,5.8,-,N/A,,Scattered Clouds,310,2013-03-29 22:55:00
7:55 PM,49.5,25.9,40,30.24,10.0,Calm,Calm,-,N/A,,Partly Cloudy,0,2013-03-29 23:55:00
8:55 PM,44.6,27.9,52,30.24,10.0,Calm,Calm,-,N/A,,Clear,0,2013-03-30 00:55:00
9:55 PM,40.1,25.5,56,30.25,10.0,NE,3.5,-,N/A,,Clear,50,2013-03-30 01:55:00
10:55 PM,40.5,24.1,52,30.26,10.0,Calm,Calm,-,N/A,,Clear,0,2013-03-30 02:55:00
11:55 PM,37.8,24.8,60,30.25,10.0,Calm,Calm,-,N/A,,Clear,0,2013-03-30 03:55:00